www.pogodaiklimat.ru

Погода и климат >> Архив погоды >> Россия >> Крым >> Симферополь


АРХИВ ПОГОДЫ в Симферополе

Время (UTC), дата Ветер
(напр.,м/с)
 
Видим.   Явления Облачность Т
(С)
Тd
(С)
f
(%)
Тe
(С)
Тes
(С)
Комфортность P
(гПа)
Po
(гПа)
Тmin
(С)
Tmax
(С)
R
(мм)
R24
(мм)
S
(см)
18 6.12 ЮЗ 7
{11}
10 км слабый ливневой дождь 10/10 1080 м
[Cb calv]
+4.2 +3.0 92 -2 -2 по сезону 1018.1 995.7 +5.0 0.1
21 6.12 З 4
{10}
10 км в посл. час ливневой дождь 10/8 800 м
[Cb calv Ac und]
+4.2 +4.1 99 -0 -0 по сезону 1017.3 995.0
00 7.12 З 3 10 км слабая морось {ливн. осадки} 10/10 480 м
[St]
+4.5 +4.2 98 +1 +1 по сезону 1016.9 994.6
03 7.12 З 4 10 км слабый ливневой дождь {морось} 10/10 660 м
[Cb calv]
+4.9 +4.3 96 +1 +1 по сезону 1016.9 994.6 +3.6 4
06 7.12 З 5 10 км слабая морось {ливн. осадки, дождь} 10/10 150 м
[St]
+4.7 +4.6 99 -0 -0 по сезону 1018.0 995.7 +4.1 5
09 7.12 З 5 10 км в посл. час дождь {морось} 10/10 600 м
[Sc]
+5.2 +4.6 96 0 0 по сезону 1019.0 996.7
12 7.12 З 4 10 км {дождь, морось} 10/10 600 м
[Sc]
+5.6 +4.7 94 +1 +1 по сезону 1018.8 996.5
15 7.12 СЗ 4 10 км 10/10 700 м
[Sc]
+5.4 +3.6 88 +1 +1 по сезону 1020.2 997.9 2
18 7.12 З 4 10 км 10/10 630 м
[Sc]
+5.9 +4.1 88 +2 +2 тепло 1020.2 997.9 +5.9 0.6
21 7.12 З 6
{10}
10 км слабый ливневой дождь 10/10 1080 м
[Cb calv]
+6.2 +5.0 92 +1 +1 по сезону 1020.2 998.0
00 8.12 ЮЗ 4
{10}
5000 м слабый дождь {ливн. осадки} 10/3 720 м
[Frnb As op]
+5.5 +5.4 99 +1 +1 по сезону 1020.4 998.1
03 8.12 ЮЗ 6 10 км {дождь} 10/10 1200 м
[Sc]
+7.2 +6.0 92 +3 +3 тепло 1019.5 997.4 +5.3 2
06 8.12 Ю 4 10 км {дождь} 3/3 1000 м
[Sc]
+5.6 +4.7 94 +1 +2 по сезону 1020.2 997.9 +5.3 2
09 8.12 ЮЗ 7 10 км 8/8 700 м
[Sc]
+9.3 +5.5 77 +5 +6 тепло 1019.4 997.4
12 8.12 ЮЗ 6
{10}
10 км 9/9 600 м
[St]
+9.1 +5.7 79 +5 +6 тепло 1018.6 996.6
15 8.12 Ю 4 10 км 3/3 300 м
[St]
+5.7 +4.0 89 +2 +2 по сезону 1018.7 996.5
18 8.12 Ю 5 10 км 4/4 480 м
[St]
+4.5 +3.5 93 -1 -1 по сезону 1018.5 996.2 +10.7
21 8.12 Ю 5 10 км 3/3 300 м
[St]
+5.1 +4.2 94 0 0 по сезону 1018.6 996.3
00 9.12 Ю 5 10 км ясно +5.1 +2.5 83 +1 +1 по сезону 1017.7 995.4
03 9.12 Ю 5 10 км 10/10 660 м
[Sc]
+7.4 +5.0 85 +3 +3 тепло 1016.8 994.7 +3.1
06 9.12 Ю 3 10 км 3/3 600 м
[Sc]
+6.2 +5.9 98 +3 +3 тепло 1016.6 994.4 +3.6
09 9.12 ЮЗ 8-11
{12}
10 км 8/8 700 м
[Sc]
+11.1 +7.4 78 +8 +8 тепло 1015.9 994.1
12 9.12 ЮЗ 8-12
{14}
10 км 10/5 750 м
[Sc Ci fib]
+12.0 +7.5 74 +9 +9 тепло 1015.0 993.3
15 9.12 Ю 4
{12}
10 км 10/4 1080 м
[Sc Ci fib]
+8.8 +4.8 76 +6 +6 тепло 1014.9 993.0
18 9.12 Ю 7 10 км 10/10 1380 м
[Sc]
+11.0 +2.8 57 +8 +8 тепло 1014.1 992.4 +12.4
21 9.12 Ю 7-10
{10}
10 км ясно +10.4 +1.5 54 +7 +7 тепло 1013.4 991.6
00 10.12 Ю 6
{11}
10 км ясно +8.8 +1.5 60 +5 +5 тепло 1012.6 990.7
03 10.12 Ю 5 10 км 3/0
[Ac trans]
+9.6 +3.1 64 +7 +7 тепло 1011.1 989.3 +8.1
06 10.12 Ю 5
{10}
10 км 6/3 1000 м
[Cb calv Ac cast]
+9.8 +4.4 69 +7 +7 тепло 1010.3 988.6 +8.5
09 10.12 Ю 10-13
{13}
10 км 6/0
[Ac trans]
+16.1 +3.9 44 +14 +14 тепло 1007.4 986.2
12 10.12 Ю 10-14
{17}
10 км слабый ливневой дождь 10/5 1200 м
[Cb calv Ac und]
+11.3 +6.0 70 +7 +7 тепло 1005.8 984.3
15 10.12 ЮЗ 12-16
{16}
4300 м слабый ливневой дождь 10/10 700 м
[Cb calv]
+6.5 +6.2 98 -0 -0 по сезону 1008.0 986.1 6
18 10.12 З 10-15
{18}
10 км в посл. час ливневой дождь 10/10 1350 м
[Cb calv]
+4.2 +2.6 89 -3 -3 по сезону 1011.8 989.6 +16.5 7
21 10.12 З 7
{15}
10 км в посл. час ливневой дождь 10/10 1140 м
[Cb calv]
+3.7 +0.2 78 -2 -2 по сезону 1016.6 994.2
00 11.12 ЮЗ 5 10 км {ливн. осадки} 10/10 1380 м
[Cb calv]
+3.9 +0.4 78 -1 -1 по сезону 1018.8 996.4
03 11.12 ЮЗ 4
{10}
10 км 10/10 930 м
[Sc]
+3.8 +1.3 84 -1 -1 по сезону 1020.0 997.6 +2.9 2
06 11.12 Ю 5 10 км 8/5 960 м
[Sc Ac trans]
+3.8 +1.0 82 -1 -1 по сезону 1021.1 998.6 +2.7 1
09 11.12 Ю 7-11
{11}
10 км 6/1 1000 м
[Sc Ac trans Ci]
+7.6 +1.9 67 +3 +4 тепло 1021.4 999.2
12 11.12 ЮЗ 9-13
{14}
10 км 10/3 1080 м
[Sc Ac trans Ci fib]
+8.8 +1.9 62 +4 +5 по сезону 1020.4 998.3
15 11.12 Ю 6
{13}
10 км 10/0
[Ac trans Ci fib]
+7.5 +3.0 73 +3 +3 по сезону 1019.8 997.7
18 11.12 ЮЗ 5
{10}
10 км 8/0
[Ci fib]
+7.5 +4.5 81 +4 +4 тепло 1021.0 998.8 +9.8
21 11.12 Ю 7-10
{11}
10 км 6/0
[Ci fib]
+8.8 +4.8 76 +5 +5 тепло 1020.1 998.1
00 12.12 ЮЗ 8-12
{12}
10 км 3/0
[Ci fib]
+10.0 +6.9 81 +6 +6 тепло 1019.3 997.4
03 12.12 ЮЗ 9-14
{14}
10 км ясно +10.9 +6.6 75 +7 +7 тепло 1019.0 997.2 +7.2
06 12.12 ЮЗ 9-13
{14}
10 км 10/0
[Ac trans Ci fib]
+11.3 +6.6 73 +8 +8 тепло 1020.0 998.2 +7.3
09 12.12 ЮЗ 13-16
{16}
10 км 10/3 600 м
[Sc Ci fib]
+13.2 +7.6 69 +10 +10 тепло 1019.5 997.8
12 12.12 ЮЗ 11-15
{17}
10 км 10/1 600 м
[Sc Ci fib]
+13.3 +6.9 65 +10 +10 тепло 1018.5 996.9
15 12.12 Ю 7-10
{15}
10 км 5/1 600 м
[Sc Ci fib]
+10.7 +7.9 83 +7 +7 тепло 1019.4 997.5
18 12.12 ЮЗ 6
{10}
10 км ясно +9.5 +7.4 87 +6 +6 тепло 1019.7 997.7 +14.0
21 12.12 Ю 5 10 км ясно +9.3 +7.4 88 +6 +6 тепло 1019.4 997.4
00 13.12 Ю 5 10 км ясно +8.7 +6.3 85 +5 +5 тепло 1019.0 997.0
03 13.12 Ю 5 10 км ясно +7.2 +5.8 91 +3 +3 тепло 1018.5 996.4 +6.9
06 13.12 Ю 5 10 км 1/0
[Ac trans]
+8.9 +7.0 88 +5 +5 тепло 1018.3 996.3 +6.1
09 13.12 ЮЗ 8-12
{12}
10 км 1/0
[Ac trans]
+14.1 +8.3 68 +12 +12 тепло 1017.5 995.9
12 13.12 ЮЗ 8-12
{12}
10 км 3/0
[Ci fib]
+14.1 +8.7 70 +12 +12 тепло 1016.4 994.9

 

Местоположение метеостанции Симферополь (Крым, Россия): широта 45.03 долгота 33.97 высота над уровнем моря 181 м.

В архиве по умолчанию представлена погода в Симферополе за последнюю неделю. Архивные данные за месяц целиком и за предыдущие месяцы, начиная с января 2011 года, Вы можете получить, выбрав интересующий диапазон дат из раскрывающегося списка и нажав кнопку "Ввод!".

Внимание! Время в таблицах - всемирное. Для получения местного времени необходимо прибавить поправку, которая в Симферополе равна 3 ч.

Смотрите также архив погоды в соседних городах и на ближайших метеорологических станциях:

Погода в Белогорске (Крым, Россия) (50 км)
Погода в Евпатории (Крым, Россия) (50 км)
Погода в Алуште (Крым, Россия) (52 км)
Погода в Севастополе (город Севастополь, Россия) (57 км)
Погода в Клепинино (Крым, Россия) (58 км)
Погода в Никитском саду (Крым, Россия) (61 км)
Погода в Ай-Петри (Крым, Россия) (63 км)
Погода в Ялте (Крым, Россия) (63 км)
Погода в Херсонесском Маяке (город Севастополь, Россия) (68 км)
Погода в Стрелковом (Херсонская область, Украина) (74 км)

Пояснения к столбцам:

Ветер - указаны скорость ветра в м/с - средняя за 10 мин, порывы в срок и между сроками (в фигурных скобках) и направление, откуда дует ветер: С - северный, СВ - северо-восточный, В - восточный, ЮВ - юго-восточный, Ю - южный, ЮЗ - юго-западный, З - западный, СЗ - северо-западный.
Видимость - горизонтальная дальность видимости в метрах или километрах. При видимости от 1 до 10 км при отсутствии осадков обычно наблюдается дымка, при ухудшении видимости до 1 км и менее - туман. В сухую погоду видимость может ухудшаться дымом, пылью или мглою.
Явления - указаны атмосферные явления, наблюдавшиеся в срок или в последний час перед сроком; фигурными скобками обозначены явления, наблюдавшиеся между сроками (за 1-3 часа до срока); квадратными скобками обозначены град или гололедные отложения с указанием их диаметра в мм.
Облачность - указаны через наклонную черту общая и нижняя облачность в баллах и высота нижней границы облаков в метрах; квадратными скобками обозначены формы облаков: Ci - перистые, Cs - перисто-слоистые, Cc - перисто-кучевые, Ac - высококучевые, As - высокослоистые, Sc - слоисто-кучевые, Ns - слоисто-дождевые, Cu - кучевые, Cb - кучево-дождевые. Подробнее классификацию облаков см. в Атласе облаков (PDF).
T - Температура воздуха - температура, измеренная на высоте 2 м над землей.
Td - Температура точки росы - температура, при понижении до которой содержащийся в воздухе водяной пар достигнет насыщения.
f - Относительная влажность воздуха - влажноcть воздуха, измеренная на высоте 2 м над землей.
Te - Эффективная температура - температура, которую ощущает одетый по сезону человек в тени. Характеристика душности погоды. При расчете учитывается влияние влажности воздуха и скорости ветра на теплоощущения человека.
Tes - Эффективная температура на солнце - температура, которую ощущает человек, с поправкой на солнечный нагрев. Характеристика знойности погоды. Зависит от высоты солнца над горизонтом, облачности и скорости ветра. Ночью, в пасмурную погоду, а также при ветре 12 м/с и более поправка равна нулю.
P - Атмосферное давление - приведенное к уровню моря атмосферное давление.
Po - Атмосферное давление - измеренное на уровне метеостанции атмосферное давление.
Tmin - Минимальная температура - минимум температуры воздуха на высоте 2 м над землей.
Tmax - Максимальная температура - максимум температуры воздуха на высоте 2 м над землей.
R - Количество осадков - Количество выпавших осадков за период времени, мм. При наведении курсора мыши на число - период времени, за который выпало указанное количество осадков.
R24 - Количество осадков - Количество выпавших осадков за 24 часа, мм.
S - Снежный покров - Высота снежного покрова, см. При наведении курсора мыши на число - состояние снежного покрова и степень покрытия местности в баллах.